Time,TemperatureF,DewpointF,PressureIn,WindDirection,WindDirectionDegrees,WindSpeedMPH,WindSpeedGustMPH,Humidity,HourlyPrecipIn,Conditions,Clouds,dailyrainin,SoftwareType,DateUTC
2013-05-06 00:00:00,40.3,37.9,29.94,SW,222,0.0,4.0,91,0.00,CLR,,0.00,WeatherDisplay:10.37,2013-05-06 07:00:00,
2013-05-06 00:10:00,40.3,37.9,29.94,SW,216,0.0,3.0,91,0.00,CLR,,0.00,WeatherDisplay:10.37,2013-05-06 07:10:00,
2013-05-06 00:20:00,40.3,37.9,29.94,SSW,213,1.0,7.0,91,0.00,CLR,,0.00,WeatherDisplay:10.37,2013-05-06 07:20:00,
2013-05-06 00:25:00,40.0,37.6,29.94,SW,225,0.0,5.0,91,0.00,CLR,,0.00,WeatherDisplay:10.37,2013-05-06 07:25:00,
2013-05-06 00:30:00,39.9,37.5,29.94,WSW,241,2.0,4.0,91,0.00,CLR,,0.00,WeatherDisplay:10.37,2013-05-06 07:30:00,
2013-05-06 00:40:00,39.4,37.2,29.94,SW,220,1.0,6.0,92,0.00,CLR,,0.00,WeatherDisplay:10.37,2013-05-06 07:40:00,
2013-05-06 00:45:00,39.2,37.1,29.94,SW,223,1.0,8.0,92,0.00,CLR,,0.00,WeatherDisplay:10.37,2013-05-06 07:45:00,
2013-05-06 00:50:00,39.2,37.3,29.94,SSW,201,1.0,4.0,93,0.00,CLR,,0.00,WeatherDisplay:10.37,2013-05-06 07:50:00,
2013-05-06 00:55:00,39.0,37.4,29.94,SSW,206,0.0,3.0,94,0.00,CLR,,0.00,WeatherDisplay:10.37,2013-05-06 07:55:00,
2013-05-06 01:00:00,39.0,37.4,29.94,SW,216,0.0,4.0,94,0.00,CLR,,0.00,WeatherDisplay:10.37,2013-05-06 08:00:00,
2013-05-06 01:05:00,39.0,37.4,29.94,SW,228,0.0,6.0,94,0.00,CLR,,0.00,WeatherDisplay:10.37,2013-05-06 08:05:00,
2013-05-06 01:10:00,39.0,37.7,29.94,SW,226,3.0,8.0,95,0.00,CLR,,0.00,WeatherDisplay:10.37,2013-05-06 08:10:00,
2013-05-06 01:20:00,38.7,37.4,29.91,SSW,211,3.0,6.0,95,0.00,CLR,,0.00,WeatherDisplay:10.37,2013-05-06 08:20:00,
2013-05-06 01:25:00,38.8,37.8,29.91,SSW,209,2.0,6.0,96,0.00,CLR,,0.00,WeatherDisplay:10.37,2013-05-06 08:25:00,
2013-05-06 01:30:00,38.8,37.8,29.91,SW,220,3.0,8.0,96,0.00,CLR,,0.00,WeatherDisplay:10.37,2013-05-06 08:30:00,
2013-05-06 01:40:00,38.7,37.9,29.91,WSW,241,5.0,9.0,97,0.00,CLR,,0.00,WeatherDisplay:10.37,2013-05-06 08:40:00,
2013-05-06 01:50:00,38.8,38.1,29.91,South,172,1.0,6.0,97,0.00,CLR,,0.00,WeatherDisplay:10.37,2013-05-06 08:50:00,
2013-05-06 01:55:00,38.8,38.1,29.91,SE,124,0.0,0.0,97,0.00,CLR,,0.00,WeatherDisplay:10.37,2013-05-06 08:55:00,
2013-05-06 02:00:00,38.8,38.0,29.91,NE,55,2.0,5.0,97,0.00,CLR,,0.00,WeatherDisplay:10.37,2013-05-06 09:00:00,
2013-05-06 02:05:00,38.8,38.1,29.91,WSW,251,2.0,8.0,97,0.00,CLR,,0.00,WeatherDisplay:10.37,2013-05-06 09:05:00,
2013-05-06 02:10:00,38.7,37.9,29.91,SW,224,1.0,9.0,97,0.00,CLR,,0.00,WeatherDisplay:10.37,2013-05-06 09:10:00,
2013-05-06 02:20:00,38.3,37.5,29.91,SSW,194,7.0,11.0,97,0.00,CLR,,0.00,WeatherDisplay:10.37,2013-05-06 09:20:00,
2013-05-06 02:30:00,37.9,37.4,29.91,SW,231,5.0,8.0,98,0.00,CLR,,0.00,WeatherDisplay:10.37,2013-05-06 09:30:00,
2013-05-06 02:35:00,37.9,37.4,29.91,SSW,211,1.0,8.0,98,0.00,CLR,,0.00,WeatherDisplay:10.37,2013-05-06 09:35:00,
2013-05-06 02:40:00,38.1,37.6,29.91,SSW,198,0.0,6.0,98,0.00,CLR,,0.00,WeatherDisplay:10.37,2013-05-06 09:40:00,
2013-05-06 02:50:00,38.3,37.8,29.91,SW,214,1.0,6.0,98,0.00,CLR,,0.00,WeatherDisplay:10.37,2013-05-06 09:50:00,
2013-05-06 02:55:00,38.3,37.8,29.91,SW,216,3.0,7.0,98,0.00,CLR,,0.00,WeatherDisplay:10.37,2013-05-06 09:55:00,
2013-05-06 03:00:00,38.1,37.6,29.91,SSW,212,3.0,6.0,98,0.00,CLR,,0.00,WeatherDisplay:10.37,2013-05-06 10:00:00,
2013-05-06 03:05:00,38.1,37.6,29.91,SSW,213,3.0,6.0,98,0.00,CLR,,0.00,WeatherDisplay:10.37,2013-05-06 10:05:00,
2013-05-06 03:10:00,37.9,37.4,29.91,SW,224,3.0,12.0,98,0.00,CLR,,0.00,WeatherDisplay:10.37,2013-05-06 10:10:00,
2013-05-06 03:20:00,37.9,37.4,29.91,SW,222,5.0,8.0,98,0.00,CLR,,0.00,WeatherDisplay:10.37,2013-05-06 10:20:00,
2013-05-06 03:25:00,37.9,37.4,29.91,WSW,243,1.0,6.0,98,0.00,CLR,,0.00,WeatherDisplay:10.37,2013-05-06 10:25:00,
2013-05-06 03:30:00,37.9,37.4,29.91,SW,216,1.0,6.0,98,0.00,CLR,,0.00,WeatherDisplay:10.37,2013-05-06 10:30:00,
2013-05-06 03:35:00,37.9,37.4,29.91,SSW,197,0.0,6.0,98,0.00,CLR,,0.00,WeatherDisplay:10.37,2013-05-06 10:35:00,
2013-05-06 03:40:00,37.9,37.4,29.91,SSW,193,0.0,6.0,98,0.00,CLR,,0.00,WeatherDisplay:10.37,2013-05-06 10:40:00,
2013-05-06 03:45:00,37.9,37.4,29.91,South,170,2.0,6.0,98,0.00,CLR,,0.00,WeatherDisplay:10.37,2013-05-06 10:45:00,
2013-05-06 03:50:00,38.0,37.5,29.91,SSW,198,5.0,12.0,98,0.00,CLR,,0.00,WeatherDisplay:10.37,2013-05-06 10:50:00,
2013-05-06 04:00:00,38.1,37.6,29.91,SSW,194,3.0,9.0,98,0.00,CLR,,0.00,WeatherDisplay:10.37,2013-05-06 11:00:00,
2013-05-06 04:05:00,37.9,37.2,29.91,South,182,3.0,6.0,97,0.00,CLR,,0.00,WeatherDisplay:10.37,2013-05-06 11:05:00,
2013-05-06 04:10:00,37.9,37.2,29.91,SSW,207,1.0,5.0,97,0.00,CLR,,0.00,WeatherDisplay:10.37,2013-05-06 11:10:00,
2013-05-06 04:15:00,37.9,37.2,29.91,SW,229,2.0,11.0,97,0.00,CLR,,0.00,WeatherDisplay:10.37,2013-05-06 11:15:00,
2013-05-06 04:20:00,37.9,36.9,29.91,SSW,206,0.0,4.0,96,0.00,CLR,,0.00,WeatherDisplay:10.37,2013-05-06 11:20:00,
2013-05-06 04:30:00,37.9,36.9,29.91,SSE,162,0.0,3.0,96,0.00,CLR,,0.00,WeatherDisplay:10.37,2013-05-06 11:30:00,
2013-05-06 04:35:00,37.9,36.9,29.91,South,169,1.0,7.0,96,0.00,CLR,,0.00,WeatherDisplay:10.37,2013-05-06 11:35:00,
2013-05-06 04:40:00,37.9,36.9,29.91,South,187,3.0,6.0,96,0.00,CLR,,0.00,WeatherDisplay:10.37,2013-05-06 11:40:00,
2013-05-06 04:50:00,37.7,36.4,29.91,South,169,2.0,9.0,95,0.00,CLR,,0.00,WeatherDisplay:10.37,2013-05-06 11:50:00,
2013-05-06 05:00:00,37.6,36.3,29.91,SSW,209,2.0,4.0,95,0.00,CLR,,0.00,WeatherDisplay:10.37,2013-05-06 12:00:00,
2013-05-06 05:05:00,37.6,36.5,29.91,SSW,192,5.0,6.0,96,0.00,CLR,,0.00,WeatherDisplay:10.37,2013-05-06 12:05:00,
2013-05-06 05:10:00,37.6,36.5,29.91,SW,227,2.0,12.0,96,0.00,CLR,,0.00,WeatherDisplay:10.37,2013-05-06 12:10:00,
2013-05-06 05:20:00,37.4,36.4,29.91,SW,226,3.0,13.0,96,0.00,CLR,,0.00,WeatherDisplay:10.37,2013-05-06 12:20:00,
2013-05-06 05:30:00,37.6,36.8,29.91,SW,232,2.0,9.0,97,0.00,CLR,,0.00,WeatherDisplay:10.37,2013-05-06 12:30:00,
2013-05-06 05:40:00,37.6,36.8,29.91,South,185,2.0,6.0,97,0.00,CLR,,0.00,WeatherDisplay:10.37,2013-05-06 12:40:00,
2013-05-06 05:50:00,37.6,36.5,29.91,South,185,2.0,5.0,96,0.00,CLR,,0.00,WeatherDisplay:10.37,2013-05-06 12:50:00,
2013-05-06 06:00:00,37.6,36.3,29.91,South,179,1.0,6.0,95,0.00,CLR,,0.00,WeatherDisplay:10.37,2013-05-06 13:00:00,
2013-05-06 06:05:00,37.6,36.3,29.91,SSW,199,3.0,8.0,95,0.00,CLR,,0.00,WeatherDisplay:10.37,2013-05-06 13:05:00,
2013-05-06 06:10:00,37.8,36.5,29.91,South,177,3.0,8.0,95,0.00,CLR,,0.00,WeatherDisplay:10.37,2013-05-06 13:10:00,
2013-05-06 06:15:00,37.8,36.5,29.91,SSE,148,0.0,6.0,95,0.00,CLR,,0.00,WeatherDisplay:10.37,2013-05-06 13:15:00,
2013-05-06 06:20:00,37.8,36.5,29.91,SE,132,3.0,8.0,95,0.00,CLR,,0.00,WeatherDisplay:10.37,2013-05-06 13:20:00,
2013-05-06 06:25:00,37.8,36.5,29.91,SE,141,2.0,6.0,95,0.00,CLR,,0.00,WeatherDisplay:10.37,2013-05-06 13:25:00,
2013-05-06 06:30:00,37.8,36.7,29.91,SSE,161,2.0,6.0,96,0.00,CLR,,0.00,WeatherDisplay:10.37,2013-05-06 13:30:00,
2013-05-06 06:35:00,37.9,36.9,29.91,South,169,3.0,5.0,96,0.00,CLR,,0.00,WeatherDisplay:10.37,2013-05-06 13:35:00,
2013-05-06 06:40:00,37.9,36.9,29.91,South,188,1.0,7.0,96,0.00,CLR,,0.00,WeatherDisplay:10.37,2013-05-06 13:40:00,
2013-05-06 06:50:00,38.1,37.3,29.91,South,189,2.0,6.0,97,0.00,CLR,,0.00,WeatherDisplay:10.37,2013-05-06 13:50:00,
2013-05-06 06:55:00,38.1,37.3,29.91,South,182,3.0,8.0,97,0.00,CLR,,0.00,WeatherDisplay:10.37,2013-05-06 13:55:00,
2013-05-06 07:00:00,38.3,37.8,29.94,South,190,3.0,8.0,98,0.00,CLR,,0.00,WeatherDisplay:10.37,2013-05-06 14:00:00,
2013-05-06 07:05:00,38.3,37.8,29.94,SSW,203,5.0,6.0,98,0.00,CLR,,0.00,WeatherDisplay:10.37,2013-05-06 14:05:00,
2013-05-06 07:10:00,38.3,37.8,29.94,SW,215,1.0,6.0,98,0.00,CLR,,0.00,WeatherDisplay:10.37,2013-05-06 14:10:00,
2013-05-06 07:20:00,38.7,38.1,29.94,SSW,193,3.0,7.0,98,0.00,CLR,,0.00,WeatherDisplay:10.37,2013-05-06 14:20:00,
2013-05-06 07:30:00,38.8,38.3,29.94,SSW,195,2.0,6.0,98,0.00,CLR,,0.00,WeatherDisplay:10.37,2013-05-06 14:30:00,
2013-05-06 07:40:00,38.8,38.3,29.94,SSW,201,3.0,8.0,98,0.00,CLR,,0.00,WeatherDisplay:10.37,2013-05-06 14:40:00,
2013-05-06 07:50:00,38.8,38.3,29.94,SW,220,3.0,10.0,98,0.00,CLR,,0.00,WeatherDisplay:10.37,2013-05-06 14:50:00,
2013-05-06 07:55:00,38.8,38.3,29.94,SW,219,3.0,17.0,98,0.00,CLR,,0.00,WeatherDisplay:10.37,2013-05-06 14:55:00,
2013-05-06 08:05:00,39.2,38.7,29.94,SW,214,5.0,8.0,98,0.00,CLR,,0.00,WeatherDisplay:10.37,2013-05-06 15:05:00,
2013-05-06 08:10:00,39.6,39.0,29.94,SSW,211,5.0,13.0,98,0.00,CLR,,0.00,WeatherDisplay:10.37,2013-05-06 15:10:00,
2013-05-06 08:15:00,39.7,39.2,29.94,SW,222,3.0,11.0,98,0.00,CLR,,0.00,WeatherDisplay:10.37,2013-05-06 15:15:00,
2013-05-06 08:20:00,39.6,39.0,29.94,SW,227,9.0,21.0,98,0.00,CLR,,0.00,WeatherDisplay:10.37,2013-05-06 15:20:00,
2013-05-06 08:25:00,38.0,36.7,29.94,SW,230,10.0,22.0,95,0.00,CLR,,0.00,WeatherDisplay:10.37,2013-05-06 15:25:00,
2013-05-06 08:30:00,37.1,35.8,29.94,SW,226,3.0,17.0,95,0.00,CLR,,0.00,WeatherDisplay:10.37,2013-05-06 15:30:00,
2013-05-06 08:35:00,36.9,35.8,29.94,SW,219,8.0,18.0,96,0.00,CLR,,0.00,WeatherDisplay:10.37,2013-05-06 15:35:00,
2013-05-06 08:40:00,36.9,35.8,29.94,SW,232,6.0,20.0,96,0.00,CLR,,0.00,WeatherDisplay:10.37,2013-05-06 15:40:00,
2013-05-06 08:50:00,36.5,36.0,29.94,SW,218,6.0,13.0,98,0.00,CLR,,0.00,WeatherDisplay:10.37,2013-05-06 15:50:00,
2013-05-06 09:00:00,36.5,36.0,29.94,SSW,210,8.0,15.0,98,0.00,CLR,,0.00,WeatherDisplay:10.37,2013-05-06 16:00:00,
2013-05-06 09:05:00,36.7,36.2,29.94,SW,214,7.0,15.0,98,0.00,CLR,,0.00,WeatherDisplay:10.37,2013-05-06 16:05:00,
2013-05-06 09:10:00,36.7,36.2,29.94,SW,216,7.0,13.0,98,0.00,CLR,,0.00,WeatherDisplay:10.37,2013-05-06 16:10:00,
2013-05-06 09:20:00,36.9,36.3,29.94,SW,231,6.0,14.0,98,0.00,CLR,,0.00,WeatherDisplay:10.37,2013-05-06 16:20:00,
2013-05-06 09:25:00,37.0,36.5,29.94,SW,214,5.0,9.0,98,0.00,CLR,,0.00,WeatherDisplay:10.37,2013-05-06 16:25:00,
2013-05-06 09:30:00,37.2,36.7,29.94,SW,215,8.0,15.0,98,0.00,CLR,,0.00,WeatherDisplay:10.37,2013-05-06 16:30:00,
2013-05-06 09:40:00,37.6,37.1,29.94,SSW,206,5.0,12.0,98,0.00,CLR,,0.00,WeatherDisplay:10.37,2013-05-06 16:40:00,
2013-05-06 09:45:00,37.8,37.2,29.97,SSW,203,3.0,8.0,98,0.00,CLR,,0.00,WeatherDisplay:10.37,2013-05-06 16:45:00,
2013-05-06 09:50:00,37.6,37.1,29.97,SSW,205,7.0,13.0,98,0.00,CLR,,0.00,WeatherDisplay:10.37,2013-05-06 16:50:00,
2013-05-06 10:00:00,37.8,37.2,29.97,WSW,240,3.0,10.0,98,0.00,CLR,,0.00,WeatherDisplay:10.37,2013-05-06 17:00:00,
2013-05-06 10:05:00,38.1,37.6,29.97,WSW,237,3.0,10.0,98,0.00,CLR,,0.00,WeatherDisplay:10.37,2013-05-06 17:05:00,
2013-05-06 10:10:00,38.5,38.0,29.97,WSW,247,2.0,6.0,98,0.00,CLR,,0.00,WeatherDisplay:10.37,2013-05-06 17:10:00,
2013-05-06 10:15:00,38.8,38.3,29.97,WSW,247,7.0,13.0,98,0.00,CLR,,0.00,WeatherDisplay:10.37,2013-05-06 17:15:00,
2013-05-06 10:20:00,39.4,38.9,29.97,WSW,248,6.0,17.0,98,0.00,CLR,,0.00,WeatherDisplay:10.37,2013-05-06 17:20:00,
2013-05-06 10:30:00,41.0,40.5,29.97,SW,217,6.0,13.0,98,0.00,CLR,,0.00,WeatherDisplay:10.37,2013-05-06 17:30:00,
2013-05-06 10:35:00,40.9,40.3,29.97,SW,231,7.0,14.0,98,0.00,CLR,,0.00,WeatherDisplay:10.37,2013-05-06 17:35:00,
2013-05-06 10:40:00,40.6,39.6,29.97,SW,228,6.0,12.0,96,0.00,CLR,,0.00,WeatherDisplay:10.37,2013-05-06 17:40:00,
2013-05-06 10:45:00,40.5,39.4,29.97,SW,222,6.0,13.0,96,0.00,CLR,,0.00,WeatherDisplay:10.37,2013-05-06 17:45:00,
2013-05-06 10:50:00,40.6,39.6,29.97,WSW,237,5.0,12.0,96,0.00,CLR,,0.00,WeatherDisplay:10.37,2013-05-06 17:50:00,
2013-05-06 11:00:00,42.4,41.4,29.97,South,176,3.0,6.0,96,0.00,CLR,,0.00,WeatherDisplay:10.37,2013-05-06 18:00:00,
2013-05-06 11:05:00,43.2,42.1,29.97,South,183,2.0,8.0,96,0.00,CLR,,0.00,WeatherDisplay:10.37,2013-05-06 18:05:00,
2013-05-06 11:10:00,44.1,42.5,29.97,South,189,3.0,9.0,94,0.00,CLR,,0.00,WeatherDisplay:10.37,2013-05-06 18:10:00,
2013-05-06 11:15:00,44.6,42.4,29.97,SSW,203,3.0,8.0,92,0.00,CLR,,0.00,WeatherDisplay:10.37,2013-05-06 18:15:00,
2013-05-06 11:20:00,45.1,42.4,29.97,SSW,204,5.0,10.0,90,0.00,CLR,,0.00,WeatherDisplay:10.37,2013-05-06 18:20:00,
2013-05-06 11:25:00,45.1,41.5,29.97,SSW,208,3.0,8.0,87,0.00,CLR,,0.00,WeatherDisplay:10.37,2013-05-06 18:25:00,
2013-05-06 11:30:00,45.4,41.5,29.97,SSW,194,3.0,6.0,86,0.00,CLR,,0.00,WeatherDisplay:10.37,2013-05-06 18:30:00,
2013-05-06 11:40:00,46.6,42.0,29.97,SSW,209,5.0,11.0,84,0.00,CLR,,0.00,WeatherDisplay:10.37,2013-05-06 18:40:00,
2013-05-06 11:50:00,46.6,41.7,29.97,SW,223,6.0,15.0,83,0.00,CLR,,0.00,WeatherDisplay:10.37,2013-05-06 18:50:00,
2013-05-06 11:55:00,46.9,42.0,29.97,SSW,203,6.0,13.0,83,0.00,CLR,,0.00,WeatherDisplay:10.37,2013-05-06 18:55:00,
2013-05-06 12:05:00,46.9,42.0,29.97,SSW,205,6.0,13.0,83,0.00,CLR,,0.00,WeatherDisplay:10.37,2013-05-06 19:05:00,
2013-05-06 12:10:00,46.9,42.0,29.97,SSW,203,5.0,6.0,83,0.00,CLR,,0.00,WeatherDisplay:10.37,2013-05-06 19:10:00,
2013-05-06 12:15:00,46.4,40.9,29.97,SSW,201,5.0,12.0,81,0.00,CLR,,0.00,WeatherDisplay:10.37,2013-05-06 19:15:00,
2013-05-06 12:20:00,46.4,40.9,29.97,SSW,197,3.0,8.0,81,0.00,CLR,,0.00,WeatherDisplay:10.37,2013-05-06 19:20:00,
2013-05-06 12:30:00,45.1,40.3,29.97,SSW,193,3.0,7.0,83,0.00,CLR,,0.00,WeatherDisplay:10.37,2013-05-06 19:30:00,
2013-05-06 12:35:00,45.1,40.0,29.97,South,188,3.0,6.0,82,0.00,CLR,,0.00,WeatherDisplay:10.37,2013-05-06 19:35:00,
2013-05-06 12:40:00,44.6,39.4,29.97,SSW,212,7.0,12.0,82,0.00,CLR,,0.00,WeatherDisplay:10.37,2013-05-06 19:40:00,
2013-05-06 12:50:00,42.3,37.5,29.97,SW,221,6.0,17.0,83,0.00,CLR,,0.00,WeatherDisplay:10.37,2013-05-06 19:50:00,
2013-05-06 12:55:00,41.4,37.2,29.97,SW,215,6.0,8.0,85,0.00,CLR,,0.00,WeatherDisplay:10.37,2013-05-06 19:55:00,
2013-05-06 13:00:00,40.9,37.6,29.97,SSW,211,5.0,10.0,88,0.00,CLR,,0.00,WeatherDisplay:10.37,2013-05-06 20:00:00,
2013-05-06 13:05:00,41.0,38.0,29.97,SSW,198,3.0,9.0,89,0.00,CLR,,0.00,WeatherDisplay:10.37,2013-05-06 20:05:00,
2013-05-06 13:10:00,41.5,38.8,29.97,SSW,194,3.0,11.0,90,0.00,CLR,,0.00,WeatherDisplay:10.37,2013-05-06 20:10:00,
2013-05-06 13:20:00,43.2,40.1,29.97,SSW,211,3.0,8.0,89,0.00,CLR,,0.00,WeatherDisplay:10.37,2013-05-06 20:20:00,
2013-05-06 13:25:00,43.7,40.4,29.97,SSW,210,5.0,8.0,88,0.00,CLR,,0.00,WeatherDisplay:10.37,2013-05-06 20:25:00,
2013-05-06 13:30:00,44.8,41.1,29.97,SSW,202,5.0,13.0,87,0.00,CLR,,0.00,WeatherDisplay:10.37,2013-05-06 20:30:00,
2013-05-06 13:40:00,46.4,40.6,29.97,SSW,203,5.0,8.0,80,0.00,CLR,,0.00,WeatherDisplay:10.37,2013-05-06 20:40:00,
2013-05-06 13:45:00,46.6,39.8,29.97,SSW,211,3.0,8.0,77,0.00,CLR,,0.00,WeatherDisplay:10.37,2013-05-06 20:45:00,
2013-05-06 13:50:00,46.6,40.1,29.97,SSW,213,5.0,11.0,78,0.00,CLR,,0.00,WeatherDisplay:10.37,2013-05-06 20:50:00,
2013-05-06 14:00:00,46.4,38.6,29.97,SSW,196,5.0,8.0,74,0.00,CLR,,0.00,WeatherDisplay:10.37,2013-05-06 21:00:00,
2013-05-06 14:05:00,46.2,39.1,29.97,SSW,198,1.0,6.0,76,0.00,CLR,,0.00,WeatherDisplay:10.37,2013-05-06 21:05:00,
2013-05-06 14:10:00,46.8,39.6,29.97,SSW,196,3.0,13.0,76,0.00,CLR,,0.00,WeatherDisplay:10.37,2013-05-06 21:10:00,
2013-05-06 14:15:00,46.6,38.0,29.97,SSW,213,5.0,9.0,72,0.00,CLR,,0.00,WeatherDisplay:10.37,2013-05-06 21:15:00,
2013-05-06 14:20:00,46.2,38.0,29.97,SW,221,3.0,8.0,73,0.00,CLR,,0.00,WeatherDisplay:10.37,2013-05-06 21:20:00,
2013-05-06 14:25:00,45.4,37.2,29.97,SSW,213,3.0,13.0,73,0.00,CLR,,0.00,WeatherDisplay:10.37,2013-05-06 21:25:00,
2013-05-06 14:30:00,45.3,37.9,29.97,SW,216,3.0,10.0,75,0.00,CLR,,0.00,WeatherDisplay:10.37,2013-05-06 21:30:00,
2013-05-06 14:40:00,45.3,38.2,29.97,SW,231,6.0,15.0,76,0.00,CLR,,0.00,WeatherDisplay:10.37,2013-05-06 21:40:00,
2013-05-06 14:45:00,45.3,38.2,29.97,SW,230,2.0,11.0,76,0.00,CLR,,0.00,WeatherDisplay:10.37,2013-05-06 21:45:00,
2013-05-06 14:50:00,46.6,37.3,29.97,SW,226,7.0,13.0,70,0.00,CLR,,0.00,WeatherDisplay:10.37,2013-05-06 21:50:00,
2013-05-06 14:55:00,45.9,37.3,29.97,SSW,212,5.0,8.0,72,0.00,CLR,,0.00,WeatherDisplay:10.37,2013-05-06 21:55:00,
2013-05-06 15:00:00,45.0,37.5,29.97,SSW,203,6.0,11.0,75,0.00,CLR,,0.00,WeatherDisplay:10.37,2013-05-06 22:00:00,
2013-05-06 15:05:00,45.0,38.2,29.97,SW,226,6.0,12.0,77,0.00,CLR,,0.00,WeatherDisplay:10.37,2013-05-06 22:05:00,
2013-05-06 15:10:00,45.0,38.2,29.97,SW,223,5.0,9.0,77,0.00,CLR,,0.00,WeatherDisplay:10.37,2013-05-06 22:10:00,
2013-05-06 15:15:00,44.4,39.3,29.97,SSW,208,3.0,7.0,82,0.00,CLR,,0.00,WeatherDisplay:10.37,2013-05-06 22:15:00,
2013-05-06 15:20:00,45.1,40.0,29.97,SSW,209,5.0,8.0,82,0.00,CLR,,0.00,WeatherDisplay:10.37,2013-05-06 22:20:00,
2013-05-06 15:30:00,45.3,39.5,29.97,South,189,2.0,6.0,80,0.00,CLR,,0.00,WeatherDisplay:10.37,2013-05-06 22:30:00,
2013-05-06 15:35:00,45.1,39.7,29.97,South,186,3.0,6.0,81,0.00,CLR,,0.00,WeatherDisplay:10.37,2013-05-06 22:35:00,
2013-05-06 15:40:00,45.0,40.7,29.97,SSW,202,5.0,11.0,85,0.00,CLR,,0.00,WeatherDisplay:10.37,2013-05-06 22:40:00,
2013-05-06 15:50:00,44.1,40.1,29.97,South,188,3.0,7.0,86,0.00,CLR,,0.00,WeatherDisplay:10.37,2013-05-06 22:50:00,
2013-05-06 15:55:00,44.4,40.8,29.97,SSW,192,3.0,8.0,87,0.00,CLR,,0.00,WeatherDisplay:10.37,2013-05-06 22:55:00,
2013-05-06 16:00:00,44.6,41.0,29.97,SSW,206,1.0,6.0,87,0.00,CLR,,0.00,WeatherDisplay:10.37,2013-05-06 23:00:00,
2013-05-06 16:05:00,44.6,41.0,29.97,SSW,209,3.0,8.0,87,0.00,CLR,,0.00,WeatherDisplay:10.37,2013-05-06 23:05:00,
2013-05-06 16:10:00,44.4,40.8,29.97,SW,221,6.0,9.0,87,0.00,CLR,,0.00,WeatherDisplay:10.37,2013-05-06 23:10:00,
2013-05-06 16:20:00,43.8,40.2,29.97,SSW,212,3.0,9.0,87,0.00,CLR,,0.00,WeatherDisplay:10.37,2013-05-06 23:20:00,
2013-05-06 16:30:00,43.3,40.0,29.97,SSW,200,3.0,8.0,88,0.00,CLR,,0.00,WeatherDisplay:10.37,2013-05-06 23:30:00,
2013-05-06 16:35:00,43.2,39.8,29.97,SSW,197,5.0,8.0,88,0.00,CLR,,0.00,WeatherDisplay:10.37,2013-05-06 23:35:00,
2013-05-06 16:40:00,42.8,39.2,29.97,SSW,207,3.0,10.0,87,0.00,CLR,,0.00,WeatherDisplay:10.37,2013-05-06 23:40:00,
2013-05-06 16:50:00,42.8,39.5,29.97,SW,215,6.0,10.0,88,0.00,RA,,0.04,WeatherDisplay:10.37,2013-05-06 23:50:00,
2013-05-06 16:55:00,42.4,39.1,29.97,SW,218,7.0,12.0,88,0.00,CLR,,0.04,WeatherDisplay:10.37,2013-05-06 23:55:00,
2013-05-06 17:00:00,41.7,37.8,29.97,SW,221,5.0,13.0,86,0.00,CLR,,0.04,WeatherDisplay:10.37,2013-05-07 00:00:00,
2013-05-06 17:10:00,41.3,38.3,29.97,SW,226,5.0,12.0,89,0.00,CLR,,0.04,WeatherDisplay:10.37,2013-05-07 00:10:00,
2013-05-06 17:15:00,41.5,39.1,29.97,SSW,211,5.0,11.0,91,0.00,CLR,,0.04,WeatherDisplay:10.37,2013-05-07 00:15:00,
2013-05-06 17:20:00,41.4,38.4,29.97,SSW,200,2.0,15.0,89,0.00,CLR,,0.04,WeatherDisplay:10.37,2013-05-07 00:20:00,
2013-05-06 17:30:00,41.2,37.9,29.97,SSW,210,6.0,13.0,88,0.00,CLR,,0.04,WeatherDisplay:10.37,2013-05-07 00:30:00,
2013-05-06 17:40:00,40.8,37.5,29.97,SW,217,3.0,13.0,88,0.00,CLR,,0.04,WeatherDisplay:10.37,2013-05-07 00:40:00,
2013-05-06 17:45:00,40.5,37.2,29.97,SW,217,3.0,13.0,88,0.00,CLR,,0.04,WeatherDisplay:10.37,2013-05-07 00:45:00,
2013-05-06 17:50:00,40.0,36.8,29.97,SW,216,3.0,13.0,88,0.00,CLR,,0.04,WeatherDisplay:10.37,2013-05-07 00:50:00,
2013-05-06 17:55:00,39.9,36.7,29.97,SSW,208,3.0,8.0,88,0.00,CLR,,0.04,WeatherDisplay:10.37,2013-05-07 00:55:00,
2013-05-06 18:00:00,40.1,37.4,29.97,SSW,195,3.0,6.0,90,0.00,CLR,,0.04,WeatherDisplay:10.37,2013-05-07 01:00:00,
2013-05-06 18:05:00,39.9,37.2,29.97,SSW,198,2.0,8.0,90,0.00,CLR,,0.04,WeatherDisplay:10.37,2013-05-07 01:05:00,
2013-05-06 18:10:00,39.9,37.2,29.97,SSW,202,0.0,6.0,90,0.00,CLR,,0.04,WeatherDisplay:10.37,2013-05-07 01:10:00,
2013-05-06 18:15:00,39.7,37.0,29.94,South,183,3.0,10.0,90,0.00,CLR,,0.04,WeatherDisplay:10.37,2013-05-07 01:15:00,
2013-05-06 18:20:00,39.4,37.0,29.94,SSW,206,5.0,9.0,91,0.00,CLR,,0.04,WeatherDisplay:10.37,2013-05-07 01:20:00,
2013-05-06 18:30:00,39.2,37.3,29.97,SW,219,3.0,8.0,93,0.00,CLR,,0.04,WeatherDisplay:10.37,2013-05-07 01:30:00,
2013-05-06 18:40:00,38.7,36.8,29.97,SSW,201,1.0,6.0,93,0.00,CLR,,0.04,WeatherDisplay:10.37,2013-05-07 01:40:00,
2013-05-06 18:45:00,38.7,36.5,29.97,SSW,198,2.0,8.0,92,0.00,CLR,,0.04,WeatherDisplay:10.37,2013-05-07 01:45:00,
2013-05-06 18:50:00,38.5,36.6,29.97,South,191,2.0,8.0,93,0.00,CLR,,0.04,WeatherDisplay:10.37,2013-05-07 01:50:00,
2013-05-06 19:00:00,38.4,36.5,29.97,SSW,201,3.0,6.0,93,0.00,CLR,,0.04,WeatherDisplay:10.37,2013-05-07 02:00:00,
2013-05-06 19:05:00,38.1,36.3,29.97,SSW,206,2.0,6.0,93,0.00,CLR,,0.04,WeatherDisplay:10.37,2013-05-07 02:05:00,
2013-05-06 19:10:00,37.9,36.1,29.97,SSW,197,3.0,6.0,93,0.00,CLR,,0.04,WeatherDisplay:10.37,2013-05-07 02:10:00,
2013-05-06 19:15:00,37.6,35.7,29.97,SSW,206,0.0,4.0,93,0.00,CLR,,0.04,WeatherDisplay:10.37,2013-05-07 02:15:00,
2013-05-06 19:20:00,37.4,35.6,29.97,SSW,192,0.0,4.0,93,0.00,CLR,,0.04,WeatherDisplay:10.37,2013-05-07 02:20:00,
2013-05-06 19:30:00,37.2,35.7,29.97,SW,227,0.0,6.0,94,0.00,CLR,,0.04,WeatherDisplay:10.37,2013-05-07 02:30:00,
2013-05-06 19:40:00,37.0,35.5,29.97,SSE,168,0.0,3.0,94,0.00,CLR,,0.04,WeatherDisplay:10.37,2013-05-07 02:40:00,
2013-05-06 19:50:00,36.5,34.7,29.97,SW,218,0.0,8.0,93,0.00,CLR,,0.04,WeatherDisplay:10.37,2013-05-07 02:50:00,
2013-05-06 19:55:00,36.3,34.5,29.97,SW,224,0.0,4.0,93,0.00,CLR,,0.04,WeatherDisplay:10.37,2013-05-07 02:55:00,
2013-05-06 20:00:00,36.1,34.3,29.97,SSW,210,0.0,5.0,93,0.00,CLR,,0.04,WeatherDisplay:10.37,2013-05-07 03:00:00,
2013-05-06 20:05:00,36.1,34.3,29.97,SW,229,0.0,3.0,93,0.00,CLR,,0.04,WeatherDisplay:10.37,2013-05-07 03:05:00,
2013-05-06 20:10:00,36.0,33.9,29.97,WSW,237,0.0,4.0,92,0.00,CLR,,0.04,WeatherDisplay:10.37,2013-05-07 03:10:00,
2013-05-06 20:15:00,35.8,33.7,29.97,WSW,240,0.0,0.0,92,0.00,CLR,,0.04,WeatherDisplay:10.37,2013-05-07 03:15:00,
2013-05-06 20:20:00,35.8,33.7,29.97,WSW,248,0.0,0.0,92,0.00,CLR,,0.04,WeatherDisplay:10.37,2013-05-07 03:20:00,
2013-05-06 20:30:00,35.6,33.5,29.97,WSW,243,0.0,8.0,92,0.00,CLR,,0.04,WeatherDisplay:10.37,2013-05-07 03:30:00,
2013-05-06 20:35:00,35.4,33.6,29.97,WSW,257,3.0,7.0,93,0.00,CLR,,0.04,WeatherDisplay:10.37,2013-05-07 03:35:00,
2013-05-06 20:45:00,35.2,33.4,29.97,SW,230,1.0,6.0,93,0.00,CLR,,0.04,WeatherDisplay:10.37,2013-05-07 03:45:00,
2013-05-06 20:50:00,35.1,33.2,29.97,SSW,210,0.0,4.0,93,0.00,CLR,,0.04,WeatherDisplay:10.37,2013-05-07 03:50:00,
2013-05-06 21:00:00,34.9,33.1,29.97,SW,225,0.0,0.0,93,0.00,CLR,,0.04,WeatherDisplay:10.37,2013-05-07 04:00:00,
2013-05-06 21:05:00,34.9,32.8,29.97,SSW,213,1.0,6.0,92,0.00,CLR,,0.04,WeatherDisplay:10.37,2013-05-07 04:05:00,
2013-05-06 21:10:00,34.9,32.8,29.97,South,190,1.0,6.0,92,0.00,CLR,,0.04,WeatherDisplay:10.37,2013-05-07 04:10:00,
2013-05-06 21:15:00,34.9,32.8,29.97,SSW,206,0.0,5.0,92,0.00,CLR,,0.04,WeatherDisplay:10.37,2013-05-07 04:15:00,
2013-05-06 21:20:00,34.9,32.8,29.97,SW,223,0.0,5.0,92,0.00,CLR,,0.04,WeatherDisplay:10.37,2013-05-07 04:20:00,
2013-05-06 21:25:00,35.1,33.0,29.97,SW,214,0.0,8.0,92,0.00,CLR,,0.04,WeatherDisplay:10.37,2013-05-07 04:25:00,
2013-05-06 21:30:00,35.1,33.0,29.97,SSW,211,0.0,8.0,92,0.00,CLR,,0.04,WeatherDisplay:10.37,2013-05-07 04:30:00,
2013-05-06 21:35:00,35.1,32.7,29.97,SW,233,3.0,6.0,91,0.00,CLR,,0.04,WeatherDisplay:10.37,2013-05-07 04:35:00,
2013-05-06 21:40:00,35.0,32.6,29.97,WSW,240,1.0,6.0,91,0.00,CLR,,0.04,WeatherDisplay:10.37,2013-05-07 04:40:00,
2013-05-06 21:45:00,34.9,32.2,29.97,SW,224,1.0,4.0,90,0.00,CLR,,0.04,WeatherDisplay:10.37,2013-05-07 04:45:00,
2013-05-06 21:50:00,34.9,32.2,29.97,WSW,237,1.0,8.0,90,0.00,CLR,,0.04,WeatherDisplay:10.37,2013-05-07 04:50:00,
2013-05-06 21:55:00,34.9,32.2,29.97,WSW,243,1.0,4.0,90,0.00,CLR,,0.04,WeatherDisplay:10.37,2013-05-07 04:55:00,
2013-05-06 22:00:00,35.1,32.7,30.00,SSW,212,0.0,4.0,91,0.00,CLR,,0.04,WeatherDisplay:10.37,2013-05-07 05:00:00,
2013-05-06 22:05:00,35.1,32.7,30.00,SSW,200,2.0,6.0,91,0.00,CLR,,0.04,WeatherDisplay:10.37,2013-05-07 05:05:00,
2013-05-06 22:10:00,35.1,32.4,30.00,SSW,212,0.0,4.0,90,0.00,CLR,,0.04,WeatherDisplay:10.37,2013-05-07 05:10:00,
2013-05-06 22:15:00,34.9,32.2,29.97,WNW,290,1.0,6.0,90,0.00,CLR,,0.04,WeatherDisplay:10.37,2013-05-07 05:15:00,
2013-05-06 22:20:00,35.1,32.4,29.97,WSW,252,0.0,6.0,90,0.00,CLR,,0.04,WeatherDisplay:10.37,2013-05-07 05:20:00,
2013-05-06 22:30:00,35.1,32.4,30.00,SW,220,0.0,2.0,90,0.00,CLR,,0.04,WeatherDisplay:10.37,2013-05-07 05:30:00,
2013-05-06 22:35:00,35.1,32.7,30.00,SSW,207,0.0,3.0,91,0.00,CLR,,0.04,WeatherDisplay:10.37,2013-05-07 05:35:00,
2013-05-06 22:40:00,35.1,32.7,30.00,SW,231,0.0,4.0,91,0.00,CLR,,0.04,WeatherDisplay:10.37,2013-05-07 05:40:00,
2013-05-06 22:45:00,35.1,32.7,30.00,WSW,254,0.0,6.0,91,0.00,CLR,,0.04,WeatherDisplay:10.37,2013-05-07 05:45:00,
2013-05-06 22:50:00,35.1,33.0,30.00,WSW,245,1.0,8.0,92,0.00,CLR,,0.04,WeatherDisplay:10.37,2013-05-07 05:50:00,
2013-05-06 23:00:00,35.1,33.2,29.97,WSW,245,0.0,0.0,93,0.00,CLR,,0.04,WeatherDisplay:10.37,2013-05-07 06:00:00,
2013-05-06 23:05:00,35.1,33.2,29.97,SW,216,1.0,6.0,93,0.00,CLR,,0.04,WeatherDisplay:10.37,2013-05-07 06:05:00,
2013-05-06 23:10:00,34.9,33.1,29.97,SSW,196,1.0,4.0,93,0.00,CLR,,0.04,WeatherDisplay:10.37,2013-05-07 06:10:00,
2013-05-06 23:20:00,34.9,33.3,29.97,SSW,197,0.0,6.0,94,0.00,CLR,,0.04,WeatherDisplay:10.37,2013-05-07 06:20:00,
2013-05-06 23:30:00,34.7,33.2,29.97,SW,230,0.0,5.0,94,0.00,CLR,,0.04,WeatherDisplay:10.37,2013-05-07 06:30:00,
2013-05-06 23:35:00,34.7,33.2,29.97,WSW,238,2.0,5.0,94,0.00,CLR,,0.04,WeatherDisplay:10.37,2013-05-07 06:35:00,
2013-05-06 23:40:00,34.5,33.0,29.97,West,266,3.0,6.0,94,0.00,CLR,,0.04,WeatherDisplay:10.37,2013-05-07 06:40:00,
2013-05-06 23:50:00,34.2,32.3,29.97,SW,227,1.0,8.0,93,0.00,CLR,,0.04,WeatherDisplay:10.37,2013-05-07 06:50:00,
2013-05-06 23:55:00,34.0,32.2,29.97,SW,229,6.0,12.0,93,0.00,CLR,,0.04,WeatherDisplay:10.37,2013-05-07 06:55:00,